Location: Central Falls
(41.8900°N, 71.3929°W)
Time: 10:53:23
(UTC+00:00)

Tiros 1 despin weight - Pass Details

Date: 11 December 2023
Orbit: 581 x 625 km, 48.2° (Epoch: 21 February)

Event Time Altitude Azimuth Distance (km) Brightness Sun altitude
Rises 21:47:41 0° 266° (W) 2,817 ? -6.3°
Reaches altitude 10° 21:50:04 10° 273° (W) 1,910 ? -6.7°
Maximum altitude 21:54:15 43° 346° (NNW) 819 ? -7.4°
Enters shadow 21:58:24 10° 59° (ENE) 1,896 ? -8.1°
